FW5810 Weather Reports


time (UTC)temp
C
wind
direction
speed
KPH
gust
KPH
rain 1hr
cm
rain 24hr
cm
rain mn
cm
humidity
%
barometer
mb
20260506050931 9 10 8.0 8.0 0.18 0.30 0.30 95 1009.1
20260506050429 9 23 3.2 8.0 0.00 0.28 0.28 95 1009.2
20260506044919 9 19 4.8 8.0 0.30 0.25 0.25 95 1009.2
20260506044418 9 21 4.8 6.4 0.13 0.23 0.23 95 1009.1
20260506043914 9 347 4.8 8.0 0.18 0.20 0.20 95 1009.2
20260506043412 9 328 8.0 11.3 0.13 0.18 0.18 95 1009.3
20260506042909 9 3 6.4 8.0 0.30 0.18 0.18 95 1009.3
20260506042409 9 16 1.6 4.8 0.30 0.15 0.15 95 1009.3
20260506041906 9 340 4.8 6.4 0.43 0.13 0.13 95 1009.3
20260506041403 9 11 6.4 8.0 0.48 0.10 0.10 95 1009.2
20260506040900 9 357 0.0 4.8 0.36 0.05 0.05 95 1009.3
20260506040358 9 7 8.0 11.3 0.30 0.00 0.00 95 1009.4
20260506035854 9 355 6.4 6.4 0.30 1.98 1.98 95 1009.2
20260506035351 9 340 8.0 11.3 0.13 1.93 1.93 95 1009.6
20260506034849 9 353 4.8 4.8 0.13 1.93 1.93 95 1009.5
20260506034346 9 30 8.0 11.3 0.18 1.91 1.91 94 1009.6
20260506033842 9 357 3.2 6.4 0.13 1.88 1.88 94 1009.7
20260506033339 9 16 6.4 12.9 0.30 1.88 1.88 94 1009.5
20260506032837 9 9 6.4 8.0 0.30 1.85 1.85 95 1009.7
20260506032333 10 41 1.6 4.8 0.30 1.83 1.83 95 1009.7
20260506031830 10 352 4.8 6.4 0.18 1.80 1.80 95 1009.8
20260506031327 10 38 6.4 11.3 0.30 1.78 1.78 95 1010.1
20260506030825 10 335 8.0 8.0 0.48 1.75 1.75 95 1010.2
20260506030323 10 331 8.0 6.4 0.48 1.73 1.73 95 1010.5
20260506025819 10 333 9.7 12.9 0.30 1.68 1.68 95 1010.0
20260506025316 10 337 1.6 4.8 0.30 1.65 1.65 95 1010.0
20260506024813 10 18 3.2 4.8 0.61 1.63 1.63 95 1010.0
20260506024310 10 354 0.0 1.6 0.89 1.60 1.60 95 1009.7
20260506023806 10 16 6.4 8.0 0.79 1.52 1.52 95 1009.6
20260506023303 10 332 0.0 1.6 0.79 1.45 1.45 95 1009.6
20260506022759 10 14 9.7 12.9 0.79 1.40 1.40 95 1009.3
20260506022257 10 5 0.0 4.8 0.43 1.32 1.32 95 1009.4
20260506021755 10 28 4.8 6.4 0.30 1.27 1.27 95 1009.3
20260506021252 10 0 4.8 6.4 0.30 1.24 1.24 95 1009.3
20260506020749 10 13 4.8 11.3 0.30 1.22 1.22 95 1009.3
20260506020247 10 30 8.0 12.9 0.48 1.19 1.19 95 1009.3
20260506015744 10 16 4.8 6.4 0.61 1.17 1.17 95 1009.3
20260506015241 10 24 4.8 11.3 0.30 1.12 1.12 95 1009.3
20260506014738 10 8 0.0 1.6 0.18 1.07 1.07 94 1009.3
20260506014235 10 7 6.4 6.4 0.18 1.07 1.07 94 1009.3
20260506013732 10 2 9.7 12.9 0.00 1.04 1.04 94 1009.2
20260506013229 10 28 11.3 12.9 0.00 1.04 1.04 94 1009.2
20260506012725 10 23 6.4 12.9 0.00 1.04 1.04 95 1009.1
20260506012222 11 14 4.8 8.0 0.00 1.04 1.04 95 1009.2
20260506011720 11 23 3.2 6.4 0.00 1.04 1.04 95 1009.1
20260506011215 11 8 6.4 8.0 0.13 1.04 1.04 95 1009.1
20260506010714 11 5 6.4 6.4 0.30 1.04 1.04 95 1009.1
20260506010211 11 349 6.4 6.4 0.30 1.02 1.02 94 1009.1
20260506005708 11 2 3.2 4.8 0.13 0.99 0.99 94 1009.0
20260506005205 11 9 3.2 6.4 0.00 0.97 0.97 94 1008.7
20260506004701 11 20 4.8 6.4 0.00 0.97 0.97 94 1008.9
20260506004159 11 355 4.8 6.4 0.00 0.97 0.97 94 1009.0
20260506003654 11 19 1.6 6.4 0.18 0.97 0.97 94 1008.8
20260506003151 11 36 3.2 1.6 0.18 0.97 0.97 94 1008.8
20260506002647 11 36 3.2 4.8 0.13 0.94 0.94 94 1008.9
20260506002143 11 42 1.6 4.8 0.30 0.94 0.94 94 1008.9
20260506001639 11 48 1.6 4.8 0.30 0.91 0.91 94 1008.9
20260506001137 11 30 3.2 1.6 0.30 0.89 0.89 94 1008.9
20260506000634 11 30 4.8 4.8 0.48 0.86 0.86 94 1008.9
20260506000131 11 21 3.2 4.8 0.61 0.84 0.84 93 1009.0
20260505235629 11 23 1.6 1.6 0.61 0.79 0.79 93 1009.1
20260505235125 11 23 0.0 4.8 0.79 0.74 0.74 92 1009.1
20260505234617 11 335 4.8 11.3 1.98 0.66 0.66 92 1009.4
20260505234114 12 298 4.8 12.9 3.07 0.58 0.58 90 1009.4
20260505233612 13 293 8.0 16.1 1.98 0.33 0.33 88 1009.6
20260505233109 15 314 12.9 16.1 0.30 0.05 0.05 88 1009.0
20260505232606 15 336 1.6 1.6 0.00 0.00 0.00 86 1008.5
20260505232104 15 280 4.8 4.8 0.00 0.00 0.00 85 1008.2
20260505231600 15 1 3.2 6.4 0.00 0.00 0.00 84 1008.2
20260505231059 15 351 3.2 4.8 0.00 0.00 0.00 84 1008.3
20260505230556 15 341 1.6 4.8 0.00 0.00 0.00 83 1008.2
20260505230052 15 327 4.8 11.3 0.00 0.00 0.00 83 1008.3
20260505225549 15 328 1.6 4.8 0.00 0.00 0.00 84 1008.3
20260505225045 15 7 3.2 4.8 0.00 0.00 0.00 83 1008.3
20260505224543 15 336 1.6 8.0 0.00 0.00 0.00 83 1008.2
20260505224040 15 341 1.6 6.4 0.00 0.00 0.00 82 1008.4
20260505223537 15 0 1.6 6.4 0.00 0.00 0.00 82 1008.5
20260505223033 15 333 6.4 8.0 0.00 0.00 0.00 82 1008.4
20260505222529 15 338 4.8 11.3 0.00 0.00 0.00 82 1008.5
20260505222026 15 4 4.8 6.4 0.00 0.00 0.00 81 1008.8
20260505221523 16 307 3.2 4.8 0.00 0.00 0.00 81 1008.6
20260505221019 16 347 1.6 4.8 0.00 0.00 0.00 81 1008.7
20260505220517 16 320 1.6 4.8 0.00 0.00 0.00 81 1008.9
20260505220015 16 354 4.8 6.4 0.00 0.00 0.00 80 1008.8
20260505215512 16 288 6.4 11.3 0.00 0.00 0.00 79 1008.5
20260505215010 16 298 4.8 6.4 0.00 0.00 0.00 77 1008.6
20260505214508 17 354 11.3 19.3 0.00 0.00 0.00 74 1008.7
20260505214004 17 354 4.8 6.4 0.00 0.00 0.00 73 1008.5
20260505213502 17 277 6.4 16.1 0.00 0.00 0.00 72 1008.6
20260505212958 17 264 3.2 6.4 0.00 0.00 0.00 73 1008.4
20260505212455 17 274 1.6 4.8 0.00 0.00 0.00 73 1008.4
20260505211952 17 273 4.8 8.0 0.00 0.00 0.00 72 1008.4
20260505211449 17 268 1.6 1.6 0.00 0.00 0.00 73 1008.5
20260505210945 17 290 4.8 6.4 0.00 0.00 0.00 72 1008.4
20260505210443 17 301 1.6 6.4 0.00 0.00 0.00 72 1008.4
20260505205939 17 207 3.2 6.4 0.00 0.00 0.00 71 1008.3
20260505205438 17 228 3.2 6.4 0.00 0.00 0.00 71 1008.3
20260505204934 17 264 6.4 8.0 0.00 0.00 0.00 70 1008.6
20260505204432 17 194 12.9 16.1 0.00 0.00 0.00 68 1008.4
20260505203929 18 255 12.9 16.1 0.00 0.00 0.00 67 1008.6
20260505203425 18 241 8.0 11.3 0.00 0.00 0.00 64 1008.4
20260505202922 18 266 6.4 12.9 0.00 0.00 0.00 62 1008.3
20260505202418 18 300 3.2 11.3 0.00 0.00 0.00 62 1008.4
20260505201915 18 242 4.8 4.8 0.00 0.00 0.00 63 1008.2
20260505201412 18 215 3.2 1.6 0.00 0.00 0.00 62 1008.1
20260505200910 18 215 6.4 11.3 0.00 0.00 0.00 60 1008.2
20260505200407 18 224 4.8 8.0 0.00 0.00 0.00 61 1008.4
20260505195902 18 212 4.8 8.0 0.00 0.00 0.00 61 1008.4
20260505195400 18 251 4.8 8.0 0.00 0.00 0.00 61 1008.3
20260505194857 19 247 9.7 17.7 0.00 0.00 0.00 60 1008.3
20260505194355 19 280 3.2 4.8 0.00 0.00 0.00 61 1008.5
20260505193854 19 202 4.8 6.4 0.00 0.00 0.00 60 1008.4
20260505193353 19 280 1.6 6.4 0.00 0.00 0.00 60 1008.4
20260505192850 18 355 3.2 16.1 0.00 0.00 0.00 62 1008.6
20260505192348 18 251 3.2 6.4 0.00 0.00 0.00 61 1008.5
20260505191845 18 274 4.8 11.3 0.00 0.00 0.00 61 1008.8
20260505191344 18 313 9.7 12.9 0.00 0.00 0.00 61 1008.8
20260505190840 18 233 9.7 8.0 0.00 0.00 0.00 60 1008.9
20260505190336 18 264 9.7 11.3 0.00 0.00 0.00 60 1008.9
20260505185831 18 293 11.3 12.9 0.00 0.00 0.00 60 1009.1
20260505185328 18 297 4.8 12.9 0.00 0.00 0.00 61 1009.1
20260505184824 18 273 6.4 16.1 0.00 0.00 0.00 62 1009.3
20260505184322 18 299 3.2 6.4 0.00 0.00 0.00 63 1009.4
20260505183819 18 255 4.8 6.4 0.00 0.00 0.00 61 1009.3
20260505183315 18 306 4.8 8.0 0.00 0.00 0.00 61 1009.2
20260505182812 18 297 4.8 12.9 0.00 0.00 0.00 61 1009.3
20260505182309 18 332 3.2 8.0 0.00 0.00 0.00 60 1008.9
20260505181806 18 266 4.8 6.4 0.00 0.00 0.00 60 1009.0
20260505181303 18 242 6.4 11.3 0.00 0.00 0.00 61 1008.9
20260505180759 18 313 4.8 8.0 0.00 0.00 0.00 59 1008.9
20260505180256 18 257 3.2 6.4 0.00 0.00 0.00 59 1008.7
20260505175752 19 284 4.8 11.3 0.00 0.00 0.00 58 1008.7
20260505175249 19 263 6.4 16.1 0.00 0.00 0.00 59 1008.8
20260505174745 19 324 11.3 12.9 0.00 0.00 0.00 58 1008.6
20260505174243 19 235 3.2 8.0 0.00 0.00 0.00 58 1008.6
20260505173739 19 261 6.4 11.3 0.00 0.00 0.00 59 1008.5
20260505173236 19 240 3.2 8.0 0.00 0.00 0.00 58 1008.4
20260505172732 19 263 11.3 16.1 0.00 0.00 0.00 57 1008.6
20260505172229 19 276 11.3 16.1 0.00 0.00 0.00 57 1008.3
20260505171729 19 242 6.4 24.1 0.00 0.00 0.00 57 1008.4
20260505171227 19 227 4.8 16.1 0.00 0.00 0.00 57 1008.7
20260505170723 20 254 16.1 19.3 0.00 0.00 0.00 56 1008.7
20260505170220 20 206 4.8 8.0 0.00 0.00 0.00 56 1008.7
20260505165716 20 264 4.8 22.5 0.00 0.00 0.00 55 1008.6
20260505165212 20 245 16.1 25.7 0.00 0.00 0.00 55 1008.5
20260505164707 20 240 8.0 16.1 0.00 0.00 0.00 55 1008.5
20260505164205 20 228 6.4 25.7 0.00 0.00 0.00 54 1008.4
20260505163703 20 261 3.2 16.1 0.00 0.00 0.00 54 1008.5
20260505163201 20 178 4.8 24.1 0.00 0.00 0.00 52 1008.6
20260505162658 21 234 8.0 17.7 0.00 0.00 0.00 52 1008.6
20260505162155 21 237 4.8 12.9 0.00 0.00 0.00 53 1008.5
20260505161652 20 218 8.0 22.5 0.00 0.00 0.00 53 1008.3
20260505161149 20 248 16.1 24.1 0.00 0.00 0.00 54 1008.2
20260505160647 21 250 11.3 25.7 0.00 0.00 0.00 52 1007.9
20260505160144 21 298 8.0 37.0 0.00 0.00 0.00 53 1007.9
20260505153124 20 269 9.7 25.7 0.00 0.00 0.00 56 1008.5
20260505152620 19 254 6.4 16.1 0.00 0.00 0.00 57 1008.4
20260505152116 19 256 11.3 19.3 0.00 0.00 0.00 57 1008.4
20260505151611 19 262 8.0 29.0 0.00 0.00 0.00 56 1008.2
20260505151109 19 318 8.0 25.7 0.00 0.00 0.00 57 1008.1
20260505150605 19 273 8.0 16.1 0.00 0.00 0.00 59 1008.4
20260505140531 18 237 16.1 17.7 0.00 0.00 0.00 61 1008.0
20260505124944 16 216 3.2 16.1 0.00 0.00 0.00 69 1007.6
20260505124441 16 176 8.0 11.3 0.00 0.00 0.00 69 1007.2
20260505123937 16 172 8.0 12.9 0.00 0.00 0.00 67 1007.6
20260505123433 16 207 6.4 12.9 0.00 0.00 0.00 66 1007.7
20260505122929 16 223 6.4 12.9 0.00 0.00 0.00 67 1007.2
20260505122427 16 266 12.9 16.1 0.00 0.00 0.00 66 1007.4
20260505121924 16 205 8.0 8.0 0.00 0.00 0.00 65 1007.5
20260505121421 16 192 3.2 11.3 0.00 0.00 0.00 65 1007.5
20260505120916 16 261 8.0 17.7 0.00 0.00 0.00 65 1007.7
20260505120413 16 210 4.8 11.3 0.00 0.00 0.00 65 1007.6
20260505115912 16 209 4.8 17.7 0.00 0.00 0.00 64 1007.9
20260505115409 17 223 4.8 17.7 0.00 0.00 0.00 63 1007.7
20260505114907 17 181 8.0 17.7 0.00 0.00 0.00 63 1007.5
20260505114403 17 171 4.8 11.3 0.00 0.00 0.00 64 1007.5
20260505113859 17 126 6.4 11.3 0.00 0.00 0.00 63 1007.5
20260505113356 17 227 4.8 12.9 0.00 0.00 0.00 63 1007.6
20260505112852 17 241 8.0 12.9 0.00 0.00 0.00 62 1007.5
20260505112350 17 285 8.0 17.7 0.00 0.00 0.00 62 1007.4
20260505111845 17 228 6.4 16.1 0.00 0.00 0.00 62 1007.1
20260505111340 17 223 14.5 17.7 0.00 0.00 0.00 62 1007.1
20260505110837 17 227 8.0 11.3 0.00 0.00 0.00 62 1006.9
20260505110334 17 273 16.1 22.5 0.00 0.00 0.00 62 1007.0
20260505101809 17 220 12.9 17.7 0.00 0.00 0.00 61 1006.7
20260505101304 17 215 8.0 12.9 0.00 0.00 0.00 60 1006.5
20260505100801 17 154 9.7 12.9 0.00 0.00 0.00 60 1006.5
20260505100257 17 185 9.7 25.7 0.00 0.00 0.00 60 1006.4
20260505095753 17 153 4.8 11.3 0.00 0.00 0.00 61 1006.5
20260505095251 17 260 4.8 17.7 0.00 0.00 0.00 60 1006.4
20260505094746 17 208 11.3 17.7 0.00 0.00 0.00 60 1006.3
20260505094243 17 173 4.8 8.0 0.00 0.00 0.00 60 1006.3
20260505093739 17 225 4.8 16.1 0.00 0.00 0.00 59 1006.0
20260505093237 17 277 11.3 17.7 0.00 0.00 0.00 59 1006.3
20260505092734 17 123 8.0 19.3 0.00 0.00 0.00 59 1006.1
20260505092232 17 218 17.7 25.7 0.00 0.00 0.00 59 1006.0
20260505091729 17 223 8.0 19.3 0.00 0.00 0.00 59 1006.1
20260505091228 17 243 11.3 17.7 0.00 0.00 0.00 59 1006.1
20260505090725 17 238 4.8 8.0 0.00 0.00 0.00 60 1005.9
20260505090223 17 274 4.8 12.9 0.00 0.00 0.00 58 1006.0
20260505085720 17 251 14.5 25.7 0.00 0.00 0.00 58 1006.0
20260505085218 17 222 6.4 19.3 0.00 0.00 0.00 59 1005.9
20260505084715 17 218 6.4 12.9 0.00 0.00 0.00 59 1005.9
20260505084214 17 229 11.3 17.7 0.00 0.00 0.00 59 1005.8
20260505083710 18 213 4.8 11.3 0.00 0.00 0.00 58 1005.8
20260505083207 18 224 9.7 16.1 0.00 0.00 0.00 58 1005.8
20260505082703 18 213 6.4 16.1 0.00 0.00 0.00 59 1005.7
20260505082201 17 228 16.1 24.1 0.00 0.00 0.00 59 1005.8
20260505081656 17 235 9.7 19.3 0.00 0.00 0.00 59 1005.7
20260505081154 17 231 4.8 22.5 0.00 0.00 0.00 60 1005.7
20260505080651 17 206 9.7 11.3 0.00 0.00 0.00 59 1005.5
20260505080146 17 178 4.8 17.7 0.00 0.00 0.00 59 1005.4
20260505075642 17 187 4.8 11.3 0.00 0.00 0.00 59 1005.3
20260505075139 17 211 14.5 24.1 0.00 0.00 0.00 59 1005.4
20260505074636 17 231 12.9 16.1 0.00 0.00 0.00 60 1005.4
20260505074133 17 209 8.0 17.7 0.00 0.00 0.00 60 1005.2
20260505073631 17 183 6.4 11.3 0.00 0.00 0.00 60 1005.2
20260505073129 17 177 4.8 17.7 0.00 0.00 0.00 59 1005.2
20260505072624 17 250 8.0 16.1 0.00 0.00 0.00 59 1005.2
20260505072121 17 241 11.3 16.1 0.00 0.00 0.00 59 1005.2
20260505071617 17 230 6.4 17.7 0.00 0.00 0.00 59 1005.2
20260505071115 17 180 4.8 17.7 0.00 0.00 0.00 59 1005.1
20260505070612 17 192 6.4 8.0 0.00 0.00 0.00 59 1005.2
20260505070108 17 209 8.0 16.1 0.00 0.00 0.00 59 1005.2
20260505065604 18 261 8.0 24.1 0.00 0.00 0.00 58 1005.2
20260505065101 17 216 11.3 12.9 0.00 0.00 0.00 59 1005.3
20260505064558 18 236 16.1 17.7 0.00 0.00 0.00 59 1005.3
20260505064056 18 211 6.4 19.3 0.00 0.00 0.00 58 1005.3
20260505063553 18 244 17.7 22.5 0.00 0.00 0.00 58 1005.5
20260505063049 18 218 4.8 12.9 0.00 0.00 0.00 59 1005.5
20260505062545 18 240 11.3 17.7 0.00 0.00 0.00 59 1005.4
20260505062043 18 197 6.4 11.3 0.00 0.00 0.00 58 1005.7
20260505061540 18 198 4.8 8.0 0.00 0.00 0.00 58 1005.6
20260505061038 18 245 8.0 17.7 0.00 0.00 0.00 58 1005.6
20260505060535 18 205 8.0 17.7 0.00 0.00 0.00 57 1005.6
20260505060032 18 216 4.8 8.0 0.00 0.00 0.00 58 1005.7
20260505055527 18 207 8.0 12.9 0.00 0.00 0.00 58 1005.9
20260505055024 18 210 6.4 16.1 0.00 0.00 0.00 58 1005.9
20260505054521 18 166 9.7 16.1 0.00 0.00 0.00 58 1005.9
20260505054020 18 258 11.3 12.9 0.00 0.00 0.00 58 1006.2
20260505053516 18 214 4.8 12.9 0.00 0.00 0.00 59 1006.2
20260505053013 17 273 9.7 12.9 0.00 0.00 0.00 60 1006.1
20260505052510 17 215 8.0 11.3 0.00 0.00 0.00 60 1006.2
20260505052008 17 222 4.8 11.3 0.00 0.00 0.00 61 1006.1
20260505051504 17 177 4.8 8.0 0.00 0.00 0.00 60 1006.2